weather.gov     
National Weather Service

Regional Weather Roundup
NWS Homepage
This page is being discontinued on March 12, 2014.
The same data is available at this site. Please update your bookmarks.
Thank you, and we apologize for the inconvenience.
Please send an email to SR-SRH.Webmaster@noaa.gov with any concerns.


Current Version
Previous Version:    01  02  03  04  05  06  07  08  09  10  11  12  13  14  15  16  17  18  19  20  21  22  23  24  25  26  27  28  29  30  
   31  32  33  34  35  36  37  38  39  40  41  42  43  44  45  46  47  48  49  50  51  52  53  54  55  56  57  58  59  60  
[Printable]
658
ASUS44 KOHX 211805
RWROHX
MIDDLE TENNESSEE HOURLY WEATHER ROUNDUP
NATIONAL WEATHER SERVICE NASHVILLE TN
100 PM CDT THU AUG 21 2014

NOTE: "FAIR" INDICATES FEW OR NO CLOUDS BELOW 12,000 FEET WITH
NO SIGNIFICANT WEATHER AND/OR OBSTRUCTIONS TO VISIBILITY.

* THESE REPORTS ARE NOT UNDER NWS QUALITY CONTROL AND MAY NOT
  REPORT WEATHER SUCH AS PRECIPITATION AND FOG.


TNZ005>011-023>034-057-059-062>066-078-080-211900
...NORTHERN MIDDLE TENNESSEE...

CITY           SKY/WX    TMP DP  RH WIND       PRES   REMARKS
CLARKSVILLE    MOSUNNY   91  71  51 SW8       30.09F HX  97
CROSSVILLE     MOSUNNY   84  68  58 W9        30.23S
NASHVILLE      MOSUNNY   92  72  51 SW7       30.13F HX  99
SMYRNA         MOSUNNY   91  71  51 W7        30.13F HX  97
SPARTA         PTSUNNY   90  75  62 NW8       30.17F HX 100
$$
TNZ056-058-060-061-075>077-079-093>097-211900
...SOUTHERN MIDDLE TENNESSEE...

CITY           SKY/WX    TMP DP  RH WIND       PRES   REMARKS
COLUMBIA       SUNNY     91  72  52 W8        30.13S HX  98
FAYETTEVILLE   MOSUNNY   88  70  55 NW6       30.16F HX  92
MCMINNVILLE    SUNNY     88  73  62 W6        30.17S HX  96
SHELBYVILLE    MOSUNNY   91  73  55 NW9       30.16S HX 100
TULLAHOMA      MOSUNNY   90  70  51 W9        30.18S HX  95
WINCHESTER     SUNNY     88  73  62 VRB6      30.17S HX  96
$$


...KEY TO REMARKS...
VSB - VISIBILITY IN MILES
WCI - WIND CHILL INDEX
HX  - HEAT INDEX





U.S. Dept. of Commerce
NOAA National Weather Service
1325 East West Highway
Silver Spring, MD 20910
E-mail: w-nws.webmaster@noaa.gov
Page last modified: May 16, 2007
NATIONAL WEATHER SERVICE: for Safety, for Work, for Fun - FOR LIFE